Location: Karaa?a�
(36.7158°N, 30.4165°E)
Time: 22:58:47
(UTC+00:00)

Cosmos 1908 - Pass Details

Date: 09 April 2020
Orbit: 511 x 531 km, 82.5° (Epoch: 23 May)

Event Time Altitude Azimuth Distance (km) Brightness Sun altitude
Rises 17:26:07 0° 186° (S) 2,629 6.7 -12.1°
Reaches altitude 10° 17:28:14 10° 187° (S) 1,749 5.7 -12.5°
Maximum altitude 17:32:05 88° 278° (W) 530 3.2 -13.2°
Drops below altitude 10° 17:35:59 10° 6° (N) 1,775 6.1 -13.9°
Sets 17:38:08 0° 7° (N) 2,672 7.0 -14.3°
